Bryce Canyon, UT

8:54 PM MDT on April 24, 2017 (GMT -0600)
Bryce Canyon

Weather History for KBCE - January, 2014

Change the Weather History Date:

Thursday, January 16, 2014

  Actual Average Record
Temperature  
Mean Temperature 30 °F -  
Max Temperature 42 °F 36 °F 51 °F (1961)
Min Temperature 10 °F 10 °F -17 °F (2008)
Degree Days  
Heating Degree Days 36    
Moisture  
Dew Point 10 °F    
Average Humidity 51    
Maximum Humidity 74    
Minimum Humidity 31    
Precipitation  
Precipitation 0.00 in - - ()
Sea Level Pressure  
Sea Level Pressure 30.38 in    
Wind  
Wind Speed 8 mph (NNW)    
Max Wind Speed 16 mph    
Max Gust Speed -    
Visibility 10 miles    
Events      
Averages and records for this station are not official NWS values.
T = Trace of Precipitation, MM = Missing Value Source: NWS Daily Summary

Daily Weather History Graph

Daily Weather History Graph

Search for Another Location

Airport or City:

Trip Planner

Search our weather history database for the weather conditions in past years. The results will help you decide how hot, cold, wet, or windy it might be!

Date:

Astronomy

Jan. 16, 2014 Rise Set
Actual Time 7:42 AM MST 5:34 PM MST
Civil Twilight 7:13 AM MST 6:03 PM MST
Nautical Twilight 6:41 AM MST 6:35 PM MST
Astronomical Twilight 6:10 AM MST 7:07 PM MST
Moon 6:28 PM MST (1/16) 7:39 AM MST (1/16)
Length of Visible Light 10h 49m
Length of Day
9h 52m
Full, 100% of the Moon is Illuminated
Jan 16
Full
Jan 23
Last Quarter
Jan 30
New
Feb 6
First Quarter
Feb 14
Full

Hourly Weather History & Observations

Time (MST) Temp. Windchill Dew Point Humidity Pressure Visibility Wind Dir Wind Speed Gust Speed Precip Events Conditions
12:53 AM 25.0 °F 20.7 °F 6.1 °F 45% 30.32 in 10.0 mi Variable 3.5 mph - N/A   Clear
1:53 AM 24.1 °F 16.0 °F 5.0 °F 44% 30.32 in 10.0 mi North 6.9 mph - N/A   Clear
2:53 AM 32.0 °F 22.1 °F 3.9 °F 31% 30.28 in 10.0 mi North 13.8 mph - N/A   Clear
3:53 AM 25.0 °F 13.6 °F 6.1 °F 45% 30.32 in 10.0 mi NW 12.7 mph - N/A   Clear
4:53 AM 21.9 °F 15.7 °F 5.0 °F 48% 30.34 in 10.0 mi NW 4.6 mph - N/A   Clear
5:53 AM 18.0 °F 8.7 °F 5.0 °F 57% 30.38 in 10.0 mi NW 6.9 mph - N/A   Clear
6:53 AM 19.0 °F 6.1 °F 5.0 °F 54% 30.40 in 10.0 mi NNW 12.7 mph - N/A   Clear
7:53 AM 18.0 °F 3.1 °F 6.1 °F 60% 30.43 in 10.0 mi NNW 16.1 mph - N/A   Clear
8:53 AM 26.1 °F 14.0 °F 9.0 °F 49% 30.40 in 10.0 mi North 15.0 mph - N/A   Clear
9:53 AM 27.0 °F 20.5 °F 12.0 °F 53% 30.45 in 10.0 mi NNW 5.8 mph - N/A   Clear
10:53 AM 35.1 °F 26.4 °F 14.0 °F 42% 30.39 in 10.0 mi NNE 12.7 mph - N/A   Clear
11:53 AM 36.0 °F 30.3 °F 16.0 °F 44% 30.38 in 10.0 mi North 6.9 mph - N/A   Clear
12:53 PM 39.0 °F 35.7 °F 19.0 °F 45% 30.33 in 10.0 mi NNW 4.6 mph - N/A   Clear
1:53 PM 41.0 °F 35.8 °F 16.0 °F 36% 30.30 in 10.0 mi NW 8.1 mph - N/A   Clear
2:53 PM 42.1 °F 38.4 °F 15.1 °F 34% 30.26 in 10.0 mi NW 5.8 mph - N/A   Clear
3:53 PM 39.9 °F 35.8 °F 17.1 °F 40% 30.30 in 10.0 mi North 5.8 mph - N/A   Clear
4:53 PM 37.0 °F 32.4 °F 18.0 °F 46% 30.34 in 10.0 mi Variable 5.8 mph - N/A   Clear
5:53 PM 30.9 °F 22.2 °F 14.0 °F 50% 30.40 in 10.0 mi North 10.4 mph - N/A   Clear
6:53 PM 27.0 °F 18.0 °F 12.9 °F 56% 30.44 in 10.0 mi North 9.2 mph - N/A   Clear
7:53 PM 21.9 °F 12.5 °F 10.9 °F 63% 30.48 in 10.0 mi North 8.1 mph - N/A   Clear
8:53 PM 18.0 °F 7.7 °F 10.9 °F 74% 30.46 in 10.0 mi WNW 8.1 mph - N/A   Clear
9:53 PM 17.1 °F 7.6 °F 9.0 °F 71% 30.46 in 10.0 mi West 6.9 mph - N/A   Clear
10:53 PM 21.9 °F 11.0 °F 9.0 °F 58% 30.39 in 10.0 mi NW 10.4 mph - N/A   Clear
11:53 PM 10.9 °F 2.9 °F 3.9 °F 73% 30.43 in 10.0 mi SSW 4.6 mph - N/A   Clear